Chickering American River Reserve, California Weather observations

Data are for 10 minute period ending at time listed.
 Day   Time   Solar   Ave.   Ave.  Ave.  Vector  Max.   Baro.   Total    
  of    of     Rad.   Air    Rel.  Wind   Wind   Wind  Press.  Precip.   
Year   Day            Temp.  Hum.  Speed  Dir.   Gust                    
2026   (PST)  Kw/m2    F      %     mph   deg.    mph    mb.     in.     
-------------------------------------------------------------------------
 128   21:10   0.00   46.9    81    1.3   199     2.1   821.7    0.00 
 128   21:20   0.00   46.5    82    1.2   189     2.3   821.7    0.00 
 128   21:30   0.00   46.0    83    1.0   186     1.8   821.7    0.00 
 128   21:40   0.00   45.7    84    0.9   195     2.5   821.6    0.00 
 128   21:50   0.00   45.5    84    0.9   214     2.3   821.6    0.00 
 128   22:00   0.00   45.5    84    1.0   218     2.6   821.5    0.00 
 128   22:10   0.00   45.3    84    1.4   213     3.4   821.5    0.00 
 128   22:20   0.00   45.0    84    1.0   208     2.6   821.4    0.00 
 128   22:30   0.00   44.9    84    1.1   194     3.3   821.4    0.00 
 128   22:40   0.00   44.5    87    1.5   198     2.1   821.4    0.00 
 128   22:50   0.00   44.5    87    1.4   195     2.8   821.3    0.00 
 128   23:00   0.00   44.3    87    1.2   193     4.2   821.3    0.00 
 128   23:10   0.00   44.4    85    2.0   228     4.0   821.2    0.00 
 128   23:20   0.00   45.0    81    1.3   201     4.1   821.1    0.00 
 128   23:30   0.00   45.4    79    1.3   219     4.5   821.1    0.00 
 128   23:40   0.00   45.9    78    1.9   219     3.9   821.2    0.00 
 128   23:50   0.00   47.0    75    1.7   218     3.7   821.3    0.00 
 129    0:00   0.00   47.9    73    1.4   220     3.1   821.2    0.00 
 129    0:10   0.00   48.6    71    1.3   213     2.8   821.2    0.00 
 129    0:20   0.00   48.5    72    2.0   226     3.4   821.1    0.00 
 129    0:30   0.00   48.5    72    1.6   214     3.4   821.0    0.00 
 129    0:40   0.00   48.1    74    1.6   204     3.1   820.9    0.00 
 129    0:50   0.00   47.4    76    1.6   206     2.8   820.9    0.00 
 129    1:00   0.00   46.9    78    1.4   200     3.9   820.9    0.00 
 129    1:10   0.00   46.5    79    1.6   205     2.8   820.9    0.00 
 129    1:20   0.00   46.5    79    1.8   217     3.2   821.0    0.00 
 129    1:30   0.00   46.3    78    1.4   210     3.4   820.9    0.00 
 129    1:40   0.00   46.1    79    1.7   205     3.7   820.9    0.00 
 129    1:50   0.00   46.3    76    2.1   218     4.2   820.9    0.00 
 129    2:00   0.00   46.8    74    1.4   215     3.1   820.8    0.00 
 129    2:10   0.00   47.6    72    0.9   217     3.3   820.8    0.00 
 129    2:20   0.00   49.6    66    1.3   122     3.7   820.8    0.00 
 129    2:30   0.00   50.8    65    1.1   110     4.7   820.8    0.00 
 129    2:40   0.00   50.3    68    0.9   202     3.8   820.8    0.00 
 129    2:50   0.00   48.4    73    0.8   195     3.0   820.8    0.00 
 129    3:00   0.00   47.4    74    1.5   218     2.9   820.8    0.00 
 129    3:10   0.00   47.7    72    1.8   208     3.2   820.8    0.00 
 129    3:20   0.00   47.4    72    1.7   206     3.2   820.8    0.00 
 129    3:30   0.00   47.3    71    1.9   130     8.1   820.8    0.00 
 129    3:40   0.00   48.0    68    1.2   201     3.4   820.8    0.00 
 129    3:50   0.00   48.1    68    1.6   185     9.6   820.8    0.00 
 129    4:00   0.00   48.1    67    1.3   204     3.1   820.8    0.00 
 129    4:10   0.00   47.5    68    1.9   219     3.5   820.8    0.00 
 129    4:20   0.00   47.2    68    1.9   213     3.4   820.8    0.00 
 129    4:30   0.00   48.3    62    1.7   214     3.0   820.7    0.00 
 129    4:40   0.00   48.5    61    1.6   241     2.8   820.7    0.00 
 129    4:50   0.00   49.4    59    1.5   245     2.9   820.7    0.00 
 129    5:00   0.00   49.2    58    1.8   243     3.1   820.7    0.00 
 129    5:10   0.01   48.4    62    1.0   224     2.7   820.8    0.00 
 129    5:20   0.01   46.4    67    2.0   224     3.5   820.8    0.00 
 129    5:30   0.01   48.1    61    2.0   257     3.9   820.9    0.00 
 129    5:40   0.02   48.2    63    1.1   236     2.8   820.9    0.00 
 129    5:50   0.03   49.9    57    1.1   301     3.7   820.9    0.00 
 129    6:00   0.06   52.9    52    0.7   300     3.1   820.9    0.00 
 129    6:10   0.10   54.0    51    0.7   269     2.6   820.9    0.00 
 129    6:20   0.06   54.8    49    0.6   258     1.9   821.0    0.00 
 129    6:30   0.04   55.8    48    1.1   310     4.1   821.0    0.00 
 129    6:40   0.06   56.6    45    1.7   358     4.3   821.1    0.00 
 129    6:50   0.08   57.9    41    2.1    42    10.5   821.1    0.00 
 129    7:00   0.05   59.0    40    3.0    44     8.2   821.2    0.00 
 129    7:10   0.15   59.4    40    3.0    52     9.0   821.3    0.00 
 129    7:20   0.45   59.5    40    3.0    60     7.9   821.3    0.00 
 129    7:30   0.49   60.4    38    2.2    46     7.2   821.2    0.00 
 129    7:40   0.53   61.2    34    3.5    48    12.8   821.3    0.00 
 129    7:50   0.56   62.3    32    4.0    54    13.3   821.4    0.00 
 129    8:00   0.60   63.5    31    2.8    61    11.0   821.4    0.00 
 129    8:10   0.63   64.1    30    3.2    47    10.1   821.4    0.00 
 129    8:20   0.66   64.6    29    2.3    72     9.6   821.4    0.00 
 129    8:30   0.69   64.9    28    2.3   127     7.0   821.4    0.00 
 129    8:40   0.54   65.7    28    2.8    84    14.7   821.4    0.00 
 129    8:50   0.36   66.4    28    2.0    72     9.5   821.4    0.00 
 129    9:00   0.54   66.6    28    3.0    62    13.4   821.4    0.00 
 129    9:10   0.40   67.6    27    2.0   130     8.0   821.4    0.00 
 129    9:20   0.17   68.3    26    2.2    85    10.5   821.5    0.00 
 129    9:30   0.62   68.3    26    2.6    47    10.2   821.5    0.00 
 129    9:40   0.28   69.2    26    3.0    58    11.0   821.5    0.00 
 129    9:50   0.02   68.7    24    3.7    60    11.0   821.5    0.00 
 129   10:00   0.01   69.1    24    3.4    87    14.1   821.6    0.00 
 129   10:10   0.02   70.0    23    2.7   102    11.0   821.6    0.00 
 129   10:20   0.02   70.0    22    2.1   124     8.3   821.6    0.00 
 129   10:30   0.02   70.7    23    2.4    80     8.8   821.6    0.00 
 129   10:40   0.02   71.0    22    1.9   115     6.9   821.5    0.00 
 129   10:50   0.01   71.5    22    3.0    93    12.9   821.6    0.00 
 129   11:00   0.01   71.5    21    3.6   111     9.9   821.5    0.00 
 129   11:10   0.01   71.6    21    3.0   130     8.3   821.5    0.00 
 129   11:20   0.01   71.5    20    2.9   114    13.8   821.4    0.00 
 129   11:30   0.29   71.7    20    2.4   135     9.4   821.4    0.00 
 129   11:40   0.94   72.6    20    2.7   153     7.3   821.3    0.00 
 129   11:50   0.55   72.6    19    2.5    87    12.7   821.3    0.00 
 129   12:00   0.40   72.9    20    2.2   119     8.5   821.2    0.00 
 129   12:10   1.05   73.9    20    3.8    58    11.8   821.1    0.00 
 129   12:20   1.05   73.8    20    2.6    88     8.0   821.0    0.00 
 129   12:30   1.04   74.2    20    2.1    76     9.0   821.0    0.00 
 129   12:40   0.99   75.1    19    1.9   168     6.1   820.9    0.00 
 129   12:50   1.03   75.3    19    2.0   180     5.6   820.9    0.00 
 129   13:00   1.02   75.7    20    1.5    86     5.3   820.9    0.00 
 129   13:10   1.02   76.4    18    1.9   143     4.7   820.8    0.00 
 129   13:20   1.00   76.5    19    1.8   129     5.0   820.7    0.00 
 129   13:30   0.90   77.0    18    1.8   162     6.2   820.7    0.00 
 129   13:40   0.97   76.7    18    2.1   157     7.1   820.6    0.00 
 129   13:50   0.95   76.9    18    2.1   140     5.3   820.6    0.00 
 129   14:00   0.94   76.4    18    2.1   165     4.4   820.5    0.00 
 129   14:10   0.92   76.2    18    1.5   105     6.7   820.5    0.00 
 129   14:20   0.89   76.3    18    2.1   160     8.8   820.4    0.00 
 129   14:30   0.87   75.9    18    2.1   156     5.8   820.3    0.00 
 129   14:40   0.85   77.0    18    1.0   108     2.9   820.2    0.00 
 129   14:50   0.82   77.3    17    1.7   119     5.3   820.1    0.00 
 129   15:00   0.79   76.6    17    2.2   133     5.9   820.0    0.00 
 129   15:10   0.76   76.6    15    1.8   156     6.5   819.9    0.00 
 129   15:20   0.73   76.8    17    0.9   118     3.6   819.9    0.00 
 129   15:30   0.70   76.6    14    2.1   176     5.2   819.9    0.00 
 129   15:40   0.67   76.8    14    1.1   149     3.5   819.8    0.00 
 129   15:50   0.63   77.0    15    1.3   181     3.9   819.8    0.00 
 129   16:00   0.57   75.2    15    1.8   180     4.2   819.7    0.00 
 129   16:10   0.20   75.1    15    1.0   172     3.7   819.7    0.00 
 129   16:20   0.49   75.2    21    1.1   165     4.9   819.6    0.00 
 129   16:30   0.48   74.6    30    0.5   300     3.4   819.6    0.00 
 129   16:40   0.44   73.7    36    1.4   194     5.7   819.7    0.00 
 129   16:50   0.36   71.9    42    0.9    48     4.1   819.8    0.00 
 129   17:00   0.05   70.7    44    0.5   123     3.6   819.7    0.00 
 129   17:10   0.04   69.9    47    0.7   308     2.8   819.7    0.00 
 129   17:20   0.04   69.3    50    0.3    15     1.6   819.6    0.00 
 129   17:30   0.03   68.4    53    0.5    54     2.4   819.7    0.00 
 129   17:40   0.03   68.0    55    0.3   102     2.1   819.7    0.00 
 129   17:50   0.03   67.0    57    0.2   115     2.0   819.7    0.00 
 129   18:00   0.02   66.1    59    0.4   148     3.9   819.7    0.00 
 129   18:10   0.02   65.0    62    0.1    56     1.2   819.7    0.00 
 129   18:20   0.02   64.3    62    0.1   247     1.5   819.8    0.00 
 129   18:30   0.01   64.0    62    0.2   231     1.0   819.9    0.00 
 129   18:40   0.01   63.5    63    0.3   251     1.2   820.0    0.00 
 129   18:50   0.01   62.9    64    0.1   230     0.8   820.1    0.00 
 129   19:00   0.01   61.6    69    0.3   215     1.0   820.2    0.00 
 129   19:10   0.00   60.6    70    0.6   228     1.2   820.2    0.00 
 129   19:20   0.00   59.1    74    1.5   206     2.5   820.2    0.00 
 129   19:30   0.00   58.2    76    1.3   212     2.2   820.4    0.00 
 129   19:40   0.00   57.4    77    1.2   204     1.8   820.5    0.00 
 129   19:50   0.00   56.4    78    1.2   200     2.0   820.6    0.00 
 129   20:00   0.00   55.5    80    1.2   198     1.8   820.7    0.00 
 129   20:10   0.00   54.8    81    1.4   201     2.0   820.7    0.00 
 129   20:20   0.00   54.0    82    0.9   187     1.6   820.7    0.00 
 129   20:30   0.00   53.3    83    1.1   195     2.2   820.8    0.00 
 129   20:40   0.00   53.4    83    0.9   218     2.0   820.8    0.00 
 129   20:50   0.00   52.8    84    1.2   208     2.0   820.8    0.00 
 129   21:00   0.00   52.5    84    0.6   202     1.3   820.8    0.00 

Return to Chickering American River Reserve graphs page.


Western Regional Climate Center,wrcc@dri.edu